Find Starlink 5670

NORAD ID: 55341 Int'l Des: 2023-013 Owner: SPXS Country: US Constellation: starlink operational
LEOCIRCULAR

当前视图

正在加载3D地球...

About Starlink 5670

Starlink 5670 (NORAD 55341) is a starlink constellation satellite (v1.5) launched Jan 26, 2023 by SPXS of US. It operates in LEO, CIRCULAR orbit with a mass of 305.00 kg.

关于 Starlink 5670

正在加载描述...

即将过境

Passes for default location (London). Set your location on the main map for personalized predictions.

高度历史

Loading altitude history...

两行轨道根数

1 55341U 23013L 26167.51432656 .00001098 00000-0 49420-4 0 9992
2 55341 43.0011 105.6189 0000993 260.7417 99.3322 15.27571920186784
Epoch: Jun 16, 2026 • Age: 46 hours

当前状态

高度 482.9 km
速度 7.63 km/s
星下点 -0.49°S, 39.99°E
发射日期 Jan 26, 2023
运行时间 3.3 years
类型 internet

技术详情

分类 Payload
质量 305.00 kg
干质量 290.00 kg
总质量 305.00 kg
长度 0.20 m
直径 2.80 m
跨度 9.00 m
形状 Box + pan
制造商 SPXS
平台类型 Starlink
阶段状态 In Orbit
所有者/国家 SPXS/US

Most Searched